TimeCDT,TemperatureF,Dew PointF,Humidity,Sea Level PressureIn,VisibilityMPH,Wind Direction,Wind SpeedMPH,Gust SpeedMPH,PrecipitationIn,Events,Conditions,WindDirDegrees,DateUTC
12:15 AM,57.2,53.6,88,30.29,10.0,NE,3.5,-,N/A,,Clear,50,2013-09-17 05:15:00
12:35 AM,55.8,52.9,90,30.29,10.0,NE,3.5,-,N/A,,Clear,50,2013-09-17 05:35:00
12:55 AM,55.4,52.7,91,30.29,10.0,NNE,3.5,-,N/A,,Scattered Clouds,20,2013-09-17 05:55:00
1:15 AM,55.0,52.5,91,30.29,10.0,NNE,3.5,-,N/A,,Clear,20,2013-09-17 06:15:00
1:35 AM,53.2,51.1,92,30.29,10.0,Calm,Calm,-,N/A,,Clear,0,2013-09-17 06:35:00
1:55 AM,53.1,51.1,93,30.29,10.0,Calm,Calm,-,N/A,,Scattered Clouds,0,2013-09-17 06:55:00
2:15 AM,53.2,51.6,94,30.29,10.0,Calm,Calm,-,N/A,,Mostly Cloudy,0,2013-09-17 07:15:00
2:35 AM,53.2,51.8,95,30.29,10.0,Calm,Calm,-,N/A,,Scattered Clouds,0,2013-09-17 07:35:00
2:55 AM,52.7,50.9,94,30.28,10.0,Calm,Calm,-,N/A,,Clear,0,2013-09-17 07:55:00
3:15 AM,52.5,51.1,95,30.28,10.0,Calm,Calm,-,N/A,,Clear,0,2013-09-17 08:15:00
3:35 AM,52.0,50.7,95,30.27,10.0,Calm,Calm,-,N/A,,Clear,0,2013-09-17 08:35:00
3:55 AM,52.3,51.1,95,30.27,10.0,Calm,Calm,-,N/A,,Clear,0,2013-09-17 08:55:00
4:15 AM,52.0,50.9,96,30.27,10.0,Calm,Calm,-,N/A,,Clear,0,2013-09-17 09:15:00
4:35 AM,51.8,50.2,94,30.27,10.0,Calm,Calm,-,N/A,,Clear,0,2013-09-17 09:35:00
4:55 AM,51.8,50.4,95,30.27,10.0,Calm,Calm,-,N/A,,Clear,0,2013-09-17 09:55:00
5:15 AM,51.6,50.4,95,30.27,10.0,Calm,Calm,-,N/A,,Clear,0,2013-09-17 10:15:00
5:35 AM,51.8,50.5,95,30.27,10.0,Calm,Calm,-,N/A,,Clear,0,2013-09-17 10:35:00
5:55 AM,52.0,50.9,96,30.28,10.0,Calm,Calm,-,N/A,,Clear,0,2013-09-17 10:55:00
6:15 AM,52.2,51.1,96,30.28,10.0,NE,3.5,-,N/A,,Clear,40,2013-09-17 11:15:00
6:35 AM,50.9,49.5,95,30.28,10.0,NE,3.5,-,N/A,,Clear,50,2013-09-17 11:35:00
6:55 AM,51.8,50.4,95,30.29,10.0,Calm,Calm,-,N/A,,Clear,0,2013-09-17 11:55:00
7:15 AM,52.2,50.7,95,30.29,10.0,NE,3.5,-,N/A,,Clear,50,2013-09-17 12:15:00
7:35 AM,55.2,54.0,96,30.29,10.0,Calm,Calm,-,N/A,,Clear,0,2013-09-17 12:35:00
7:55 AM,58.1,54.7,88,30.29,10.0,East,3.5,-,N/A,,Clear,80,2013-09-17 12:55:00
8:15 AM,59.2,54.9,86,30.29,10.0,East,6.9,-,N/A,,Clear,80,2013-09-17 13:15:00
8:35 AM,60.1,54.9,83,30.29,10.0,East,6.9,-,N/A,,Clear,90,2013-09-17 13:35:00
8:55 AM,62.8,55.8,78,30.29,10.0,East,6.9,-,N/A,,Clear,100,2013-09-17 13:55:00
9:15 AM,64.2,55.8,74,30.29,10.0,East,9.2,-,N/A,,Clear,90,2013-09-17 14:15:00
9:35 AM,65.7,56.3,72,30.29,10.0,ESE,9.2,-,N/A,,Clear,110,2013-09-17 14:35:00
9:55 AM,67.3,56.5,68,30.29,10.0,East,9.2,-,N/A,,Clear,100,2013-09-17 14:55:00
10:15 AM,70.0,57.4,64,30.29,10.0,ESE,5.8,-,N/A,,Clear,120,2013-09-17 15:15:00
10:35 AM,71.6,57.2,60,30.28,10.0,East,6.9,-,N/A,,Clear,100,2013-09-17 15:35:00
10:55 AM,73.2,57.2,57,30.27,10.0,East,11.5,-,N/A,,Clear,90,2013-09-17 15:55:00
11:15 AM,74.3,57.0,55,30.27,10.0,East,6.9,-,N/A,,Clear,90,2013-09-17 16:15:00
11:35 AM,74.5,56.8,54,30.27,10.0,East,8.1,-,N/A,,Clear,90,2013-09-17 16:35:00
11:55 AM,74.7,56.5,53,30.26,10.0,East,8.1,-,N/A,,Clear,90,2013-09-17 16:55:00
12:15 PM,76.5,54.7,47,30.25,10.0,ESE,5.8,-,N/A,,Clear,110,2013-09-17 17:15:00
12:35 PM,76.5,54.1,46,30.24,10.0,East,8.1,-,N/A,,Clear,100,2013-09-17 17:35:00
12:55 PM,76.1,53.8,46,30.23,10.0,ESE,4.6,-,N/A,,Clear,110,2013-09-17 17:55:00
1:15 PM,78.4,54.7,44,30.23,10.0,East,5.8,-,N/A,,Clear,90,2013-09-17 18:15:00
1:35 PM,78.4,54.3,43,30.22,10.0,East,4.6,-,N/A,,Scattered Clouds,80,2013-09-17 18:35:00
1:55 PM,78.6,52.0,39,30.21,10.0,ESE,11.5,16.1,N/A,,Clear,110,2013-09-17 18:55:00
2:15 PM,79.2,52.0,39,30.19,10.0,ESE,8.1,-,N/A,,Clear,120,2013-09-17 19:15:00
2:35 PM,79.0,50.4,37,30.19,10.0,SSE,8.1,-,N/A,,Clear,150,2013-09-17 19:35:00
2:55 PM,78.6,51.6,39,30.18,10.0,SSE,6.9,-,N/A,,Clear,150,2013-09-17 19:55:00
3:15 PM,79.9,52.0,38,30.17,10.0,SSE,6.9,-,N/A,,Clear,150,2013-09-17 20:15:00
3:35 PM,79.0,51.6,38,30.17,10.0,SSE,5.8,16.1,N/A,,Clear,150,2013-09-17 20:35:00
3:55 PM,80.2,51.1,36,30.17,10.0,SSE,6.9,-,N/A,,Clear,150,2013-09-17 20:55:00
4:15 PM,78.8,53.6,42,30.17,10.0,SE,4.6,-,N/A,,Clear,140,2013-09-17 21:15:00
4:35 PM,77.9,53.4,43,30.17,10.0,SSE,6.9,-,N/A,,Clear,160,2013-09-17 21:35:00
4:55 PM,77.0,55.0,47,30.16,10.0,SSE,4.6,-,N/A,,Clear,160,2013-09-17 21:55:00
5:15 PM,78.4,54.9,44,30.16,10.0,South,6.9,-,N/A,,Clear,170,2013-09-17 22:15:00
5:35 PM,76.5,55.4,48,30.16,10.0,SSE,3.5,-,N/A,,Scattered Clouds,150,2013-09-17 22:35:00
5:55 PM,75.2,56.1,51,30.16,10.0,East,3.5,-,N/A,,Mostly Cloudy,100,2013-09-17 22:55:00
6:15 PM,73.4,57.4,57,30.16,10.0,ESE,3.5,-,N/A,,Mostly Cloudy,120,2013-09-17 23:15:00
6:35 PM,72.7,57.6,59,30.15,10.0,Calm,Calm,-,N/A,,Overcast,0,2013-09-17 23:35:00
6:55 PM,71.1,58.6,65,30.15,10.0,East,3.5,-,N/A,,Overcast,80,2013-09-17 23:55:00
7:15 PM,70.0,59.0,68,30.14,10.0,East,4.6,-,N/A,,Mostly Cloudy,90,2013-09-18 00:15:00
7:35 PM,69.8,58.8,68,30.15,10.0,East,4.6,-,N/A,,Mostly Cloudy,100,2013-09-18 00:35:00
7:55 PM,68.7,58.5,70,30.15,10.0,East,5.8,-,N/A,,Mostly Cloudy,90,2013-09-18 00:55:00
8:15 PM,68.9,58.1,68,30.15,10.0,East,6.9,-,N/A,,Overcast,90,2013-09-18 01:15:00
8:35 PM,67.8,58.3,71,30.14,10.0,East,4.6,-,N/A,,Mostly Cloudy,100,2013-09-18 01:35:00
8:55 PM,67.1,58.5,74,30.15,10.0,ESE,3.5,-,N/A,,Mostly Cloudy,110,2013-09-18 01:55:00
9:15 PM,66.4,58.3,75,30.15,10.0,East,3.5,-,N/A,,Overcast,100,2013-09-18 02:15:00
9:35 PM,64.8,58.1,79,30.15,10.0,East,4.6,-,N/A,,Scattered Clouds,100,2013-09-18 02:35:00
9:55 PM,64.0,57.6,79,30.15,10.0,East,3.5,-,N/A,,Clear,100,2013-09-18 02:55:00
10:15 PM,64.0,57.7,80,30.14,10.0,ESE,5.8,-,N/A,,Clear,110,2013-09-18 03:15:00
10:35 PM,64.8,57.7,78,30.14,10.0,Calm,Calm,-,N/A,,Clear,0,2013-09-18 03:35:00
11:15 PM,63.9,58.5,83,30.14,10.0,Calm,Calm,-,N/A,,Clear,0,2013-09-18 04:15:00
11:35 PM,64.2,58.8,83,30.14,10.0,Calm,Calm,-,N/A,,Clear,0,2013-09-18 04:35:00
11:55 PM,64.8,59.0,82,30.13,10.0,Calm,Calm,-,N/A,,Clear,0,2013-09-18 04:55:00